TimeMST,TemperatureF,Dew PointF,Humidity,Sea Level PressureIn,VisibilityMPH,Wind Direction,Wind SpeedMPH,Gust SpeedMPH,PrecipitationIn,Events,Conditions,WindDirDegrees,DateUTC
12:15 AM,60.8,32.0,34,30.08,10.0,NE,11.5,-,N/A,,Clear,40,2013-10-01 07:15:00
12:35 AM,60.8,32.0,34,30.08,10.0,NNE,6.9,-,N/A,,Clear,30,2013-10-01 07:35:00
12:55 AM,59.0,30.2,34,30.08,10.0,NE,8.1,-,N/A,,Clear,40,2013-10-01 07:55:00
1:15 AM,59.0,30.2,34,30.09,10.0,NNE,9.2,-,N/A,,Clear,30,2013-10-01 08:15:00
1:35 AM,59.0,30.2,34,30.08,10.0,NNE,9.2,-,N/A,,Clear,30,2013-10-01 08:35:00
1:55 AM,59.0,30.2,34,30.08,10.0,NNE,10.4,-,N/A,,Clear,30,2013-10-01 08:55:00
2:15 AM,59.0,30.2,34,30.08,10.0,NNE,10.4,-,N/A,,Clear,30,2013-10-01 09:15:00
2:35 AM,59.0,30.2,34,30.07,10.0,NNE,10.4,-,N/A,,Clear,30,2013-10-01 09:35:00
2:55 AM,57.2,30.2,36,30.07,10.0,NE,11.5,-,N/A,,Clear,40,2013-10-01 09:55:00
3:15 AM,57.2,30.2,36,30.07,10.0,NE,10.4,-,N/A,,Clear,40,2013-10-01 10:15:00
3:35 AM,57.2,30.2,36,30.07,10.0,NE,11.5,-,N/A,,Clear,40,2013-10-01 10:35:00
3:55 AM,55.4,30.2,38,30.08,10.0,NE,11.5,-,N/A,,Clear,40,2013-10-01 10:55:00
4:15 AM,55.4,30.2,38,30.08,10.0,NE,10.4,-,N/A,,Clear,40,2013-10-01 11:15:00
4:35 AM,55.4,30.2,38,30.08,10.0,NNE,10.4,-,N/A,,Clear,30,2013-10-01 11:35:00
4:55 AM,55.4,30.2,38,30.09,10.0,NNE,9.2,-,N/A,,Clear,30,2013-10-01 11:55:00
5:15 AM,55.4,28.4,36,30.10,10.0,NE,10.4,-,N/A,,Clear,40,2013-10-01 12:15:00
5:35 AM,55.4,30.2,38,30.10,10.0,NNE,9.2,-,N/A,,Clear,30,2013-10-01 12:35:00
5:55 AM,53.6,30.2,41,30.10,10.0,NNE,10.4,-,N/A,,Clear,30,2013-10-01 12:55:00
6:15 AM,53.6,28.4,38,30.10,10.0,NE,10.4,-,N/A,,Clear,40,2013-10-01 13:15:00
6:35 AM,53.6,28.4,38,30.10,10.0,NE,12.7,-,N/A,,Clear,40,2013-10-01 13:35:00
6:55 AM,55.4,28.4,36,30.11,10.0,NE,12.7,-,N/A,,Clear,40,2013-10-01 13:55:00
7:15 AM,55.4,30.2,38,30.11,10.0,NE,12.7,-,N/A,,Clear,40,2013-10-01 14:15:00
7:35 AM,59.0,30.2,34,30.12,10.0,NE,11.5,-,N/A,,Clear,40,2013-10-01 14:35:00
7:55 AM,60.8,30.2,31,30.12,10.0,NE,10.4,-,N/A,,Clear,40,2013-10-01 14:55:00
8:15 AM,60.8,32.0,34,30.13,10.0,NE,5.8,-,N/A,,Clear,40,2013-10-01 15:15:00
8:35 AM,64.4,32.0,30,30.14,10.0,East,3.5,-,N/A,,Clear,90,2013-10-01 15:35:00
8:55 AM,66.2,32.0,28,30.14,10.0,ESE,4.6,-,N/A,,Clear,110,2013-10-01 15:55:00
9:15 AM,66.2,32.0,28,30.15,10.0,Calm,Calm,-,N/A,,Clear,0,2013-10-01 16:15:00
9:35 AM,68.0,32.0,26,30.15,10.0,Calm,Calm,-,N/A,,Clear,0,2013-10-01 16:35:00
9:55 AM,71.6,32.0,23,30.15,10.0,SSE,4.6,-,N/A,,Clear,160,2013-10-01 16:55:00
10:15 AM,71.6,32.0,23,30.15,10.0,SSE,3.5,-,N/A,,Clear,150,2013-10-01 17:15:00
10:35 AM,73.4,33.8,23,30.15,10.0,SE,6.9,-,N/A,,Clear,140,2013-10-01 17:35:00
10:55 AM,75.2,32.0,21,30.14,10.0,South,5.8,-,N/A,,Clear,170,2013-10-01 17:55:00
11:15 AM,77.0,32.0,19,30.14,10.0,SE,9.2,-,N/A,,Clear,140,2013-10-01 18:15:00
11:35 AM,78.8,30.2,17,30.13,10.0,SSE,10.4,-,N/A,,Clear,150,2013-10-01 18:35:00
11:55 AM,78.8,30.2,17,30.13,10.0,South,10.4,-,N/A,,Clear,180,2013-10-01 18:55:00
12:15 PM,78.8,30.2,17,30.12,10.0,South,4.6,-,N/A,,Clear,180,2013-10-01 19:15:00
12:35 PM,80.6,30.2,16,30.12,10.0,SSE,6.9,-,N/A,,Clear,160,2013-10-01 19:35:00
12:55 PM,78.8,30.2,17,30.10,10.0,SW,8.1,-,N/A,,Clear,220,2013-10-01 19:55:00
1:15 PM,78.8,30.2,17,30.10,10.0,SSE,6.9,-,N/A,,Clear,160,2013-10-01 20:15:00
1:35 PM,80.6,32.0,17,30.09,10.0,South,6.9,16.1,N/A,,Clear,190,2013-10-01 20:35:00
1:55 PM,78.8,30.2,17,30.08,10.0,West,5.8,-,N/A,,Clear,280,2013-10-01 20:55:00
2:15 PM,80.6,30.2,16,30.08,10.0,SSW,8.1,-,N/A,,Clear,210,2013-10-01 21:15:00
2:35 PM,80.6,30.2,16,30.08,10.0,South,5.8,-,N/A,,Clear,190,2013-10-01 21:35:00
2:55 PM,80.6,30.2,16,30.06,10.0,SSE,12.7,-,N/A,,Clear,160,2013-10-01 21:55:00
3:15 PM,80.6,30.2,16,30.06,10.0,WSW,5.8,-,N/A,,Clear,250,2013-10-01 22:15:00
3:35 PM,80.6,28.4,15,30.06,10.0,SSW,10.4,17.3,N/A,,Clear,210,2013-10-01 22:35:00
3:55 PM,80.6,28.4,15,30.05,10.0,South,11.5,-,N/A,,Clear,190,2013-10-01 22:55:00
4:15 PM,78.8,28.4,16,30.05,10.0,SSW,10.4,18.4,N/A,,Clear,210,2013-10-01 23:15:00
4:35 PM,78.8,28.4,16,30.05,10.0,South,8.1,-,N/A,,Clear,190,2013-10-01 23:35:00
4:55 PM,77.0,28.4,17,30.05,10.0,South,10.4,-,N/A,,Clear,180,2013-10-01 23:55:00
5:15 PM,77.0,30.2,18,30.05,10.0,SSW,8.1,-,N/A,,Clear,200,2013-10-02 00:15:00
5:35 PM,75.2,30.2,19,30.05,10.0,SW,8.1,-,N/A,,Clear,220,2013-10-02 00:35:00
5:55 PM,73.4,30.2,20,30.05,10.0,SW,9.2,-,N/A,,Clear,220,2013-10-02 00:55:00
6:15 PM,71.6,30.2,22,30.05,10.0,SW,6.9,-,N/A,,Clear,230,2013-10-02 01:15:00
6:35 PM,71.6,30.2,22,30.06,10.0,SSW,4.6,-,N/A,,Clear,210,2013-10-02 01:35:00
6:55 PM,69.8,30.2,23,30.06,10.0,SSW,4.6,-,N/A,,Clear,210,2013-10-02 01:55:00
7:15 PM,69.8,30.2,23,30.06,10.0,SSW,5.8,-,N/A,,Clear,200,2013-10-02 02:15:00
7:35 PM,68.0,30.2,24,30.07,10.0,Calm,Calm,-,N/A,,Clear,0,2013-10-02 02:35:00
7:55 PM,68.0,30.2,24,30.08,10.0,South,4.6,-,N/A,,Clear,170,2013-10-02 02:55:00
8:15 PM,68.0,30.2,24,30.08,10.0,South,4.6,-,N/A,,Clear,170,2013-10-02 03:15:00
8:35 PM,68.0,30.2,24,30.09,10.0,South,4.6,-,N/A,,Clear,170,2013-10-02 03:35:00
8:55 PM,64.4,30.2,28,30.09,10.0,Calm,Calm,-,N/A,,Clear,0,2013-10-02 03:55:00
9:15 PM,64.4,30.2,28,30.10,10.0,ESE,4.6,-,N/A,,Clear,120,2013-10-02 04:15:00
9:35 PM,64.4,30.2,28,30.10,10.0,ESE,5.8,-,N/A,,Clear,120,2013-10-02 04:35:00
9:55 PM,64.4,30.2,28,30.10,10.0,ENE,3.5,-,N/A,,Clear,60,2013-10-02 04:55:00
10:15 PM,62.6,30.2,30,30.10,10.0,ENE,3.5,-,N/A,,Clear,60,2013-10-02 05:15:00
10:35 PM,62.6,30.2,30,30.10,10.0,NE,3.5,-,N/A,,Clear,40,2013-10-02 05:35:00
10:55 PM,60.8,32.0,34,30.09,10.0,NE,6.9,-,N/A,,Clear,40,2013-10-02 05:55:00
11:15 PM,60.8,32.0,34,30.09,10.0,NNE,6.9,-,N/A,,Clear,30,2013-10-02 06:15:00
11:35 PM,60.8,32.0,34,30.09,10.0,NNE,5.8,-,N/A,,Clear,30,2013-10-02 06:35:00
11:55 PM,60.8,32.0,34,30.09,10.0,NNE,5.8,-,N/A,,Clear,30,2013-10-02 06:55:00